This is the latest recevied weather packets stored in our database for station/object M0JUI-1. If no packets are shown the sender has not sent any weather packets the latest 10 day(s).
| Time | Temp. | Humidity | Pressure | Rain* | Wind** | Luminosity | Snow |
|---|---|---|---|---|---|---|---|
| 1777828467 | 12.22° C | 99% | 1010.2 hPa | 0 mm | - | 41 W/m² | - |
| 1777828168 | 12.22° C | 99% | 1010.3 hPa | 0 mm | - | 39 W/m² | - |
| 1777827867 | 12.22° C | 99% | 1010.3 hPa | 0 mm | - | 39 W/m² | - |
| 1777827567 | 12.78° C | 99% | 1010.4 hPa | 0 mm | - | 39 W/m² | - |
| 1777827267 | 12.78° C | 99% | 1010.2 hPa | 0 mm | - | 30 W/m² | - |
| 1777826968 | 12.78° C | 99% | 1010.2 hPa | 0 mm | - | 38 W/m² | - |
| 1777826667 | 12.78° C | 99% | 1010.2 hPa | 0 mm | - | 46 W/m² | - |
| 1777826356 | 12.78° C | 99% | 1010.1 hPa | 0 mm | - | 53 W/m² | - |
| 1777826056 | 12.78° C | 99% | 1010.3 hPa | 0 mm | - | 55 W/m² | - |
| 1777825755 | 12.78° C | 99% | 1010.1 hPa | 0 mm | - | 56 W/m² | - |
| 1777825455 | 12.78° C | 99% | 1010.1 hPa | 0 mm | - | 50 W/m² | - |
| 1777825155 | 12.22° C | 99% | 1010.1 hPa | 0 mm | - | 47 W/m² | - |
| 1777824855 | 12.78° C | 99% | 1010.3 hPa | 0 mm | - | 53 W/m² | - |
| 1777824555 | 12.22° C | 99% | 1010.1 hPa | 0 mm | - | 57 W/m² | - |
| 1777824243 | 12.22° C | 99% | 1010.1 hPa | 0 mm | - | 58 W/m² | - |
| 1777823943 | 12.22° C | 99% | 1010 hPa | 0 mm | - | 59 W/m² | - |
| 1777823643 | 12.22° C | 99% | 1010.2 hPa | 0 mm | - | 55 W/m² | - |
| 1777823331 | 12.22° C | 99% | 1010 hPa | 0 mm | - | 51 W/m² | - |
| 1777823031 | 12.22° C | 99% | 1010.1 hPa | 0 mm | - | 55 W/m² | - |
| 1777822731 | 12.22° C | 99% | 1010.1 hPa | 0 mm | - | 56 W/m² | - |
| 1777822419 | 12.22° C | 98% | 1010.2 hPa | 0 mm | - | 49 W/m² | - |
| 1777822119 | 12.22° C | 98% | 1010.1 hPa | 0 mm | - | 44 W/m² | - |
| 1777821819 | 12.22° C | 98% | 1010.1 hPa | 0 mm | - | 33 W/m² | - |
| 1777821519 | 12.78° C | 95% | 1010.3 hPa | 0 mm | - | 31 W/m² | - |
| 1777821219 | 12.78° C | 94% | 1010.1 hPa | 0 mm | - | 44 W/m² | - |
* Rain latest hour (hover to see other rain measurements)
** Current wind speed in m/s (hover to see current wind gust speed)